TimeMDT,TemperatureF,Dew PointF,Humidity,Sea Level PressureIn,VisibilityMPH,Wind Direction,Wind SpeedMPH,Gust SpeedMPH,PrecipitationIn,Events,Conditions,WindDirDegrees,DateUTC
12:58 AM,72.5,60.1,65,29.97,10.0,North,6.9,-,N/A,,Clear,360,2013-09-04 06:58:00
1:58 AM,70.7,59.7,68,29.96,10.0,North,11.5,-,N/A,,Clear,10,2013-09-04 07:58:00
2:58 AM,67.3,59.0,75,29.99,10.0,NNW,6.9,-,N/A,,Clear,340,2013-09-04 08:58:00
3:58 AM,66.4,59.5,79,29.99,10.0,NNW,9.2,-,N/A,,Clear,340,2013-09-04 09:58:00
4:58 AM,65.8,59.9,81,30.01,10.0,NNW,8.1,-,N/A,,Clear,340,2013-09-04 10:58:00
5:58 AM,65.8,59.9,81,30.01,10.0,North,9.2,-,N/A,,Clear,350,2013-09-04 11:58:00
6:58 AM,66.6,60.3,80,30.04,10.0,NNW,8.1,-,N/A,,Clear,330,2013-09-04 12:58:00
7:58 AM,69.3,60.8,74,30.06,10.0,North,6.9,-,N/A,,Clear,360,2013-09-04 13:58:00
8:58 AM,72.1,61.0,68,30.06,10.0,NNE,8.1,-,N/A,,Clear,20,2013-09-04 14:58:00
9:58 AM,77.0,61.3,58,30.06,10.0,North,9.2,-,N/A,,Clear,10,2013-09-04 15:58:00
10:58 AM,80.1,60.6,51,30.06,10.0,NE,3.5,-,N/A,,Clear,50,2013-09-04 16:58:00
11:58 AM,83.5,61.3,47,30.05,10.0,East,4.6,-,N/A,,Clear,80,2013-09-04 17:58:00
12:58 PM,85.6,61.7,44,30.04,10.0,Variable,2.3,-,N/A,,Clear,0,2013-09-04 18:58:00
1:58 PM,89.1,61.3,39,30.02,10.0,Variable,2.3,-,N/A,,Clear,0,2013-09-04 19:58:00
2:58 PM,88.3,61.5,40,30.01,10.0,SE,8.1,-,N/A,,Clear,130,2013-09-04 20:58:00
3:58 PM,90.3,60.8,37,30.01,10.0,ESE,10.4,-,N/A,,Clear,120,2013-09-04 21:58:00
4:58 PM,89.6,60.8,38,30.00,10.0,ESE,8.1,-,N/A,,Clear,120,2013-09-04 22:58:00
5:58 PM,86.9,60.6,41,30.01,10.0,ESE,8.1,-,N/A,,Scattered Clouds,110,2013-09-04 23:58:00
6:58 PM,84.7,61.0,45,30.01,10.0,ESE,9.2,-,N/A,,Mostly Cloudy,110,2013-09-05 00:58:00
7:58 PM,82.6,61.2,48,30.03,10.0,East,9.2,-,N/A,,Clear,100,2013-09-05 01:58:00
8:58 PM,79.5,61.7,54,30.04,10.0,East,9.2,-,N/A,,Scattered Clouds,100,2013-09-05 02:58:00
9:58 PM,77.2,63.0,61,30.05,10.0,ESE,9.2,-,N/A,,Clear,110,2013-09-05 03:58:00
10:58 PM,73.9,62.6,68,30.06,10.0,South,4.6,-,N/A,,Clear,180,2013-09-05 04:58:00
11:58 PM,73.4,62.8,69,30.06,10.0,South,5.8,-,N/A,,Scattered Clouds,170,2013-09-05 05:58:00